Regional Weather Roundup
Issued by NWS

Home | Current Version | Previous Version | Text Only | Print | Product List | Glossary On
Versions: 1 2 3 4 5 6 7 8 9 10 11 12 13 14 15 16 17 18 19 20 21 22 23 24 25 26 27
000
ASUS45 KTFX 231910
RWRMT
MONTANA REGIONAL WEATHER ROUNDUP
NATIONAL WEATHER SERVICE GREAT FALLS MT
100 PM MDT SAT JUL 23 2016

NOTE: "FAIR" INDICATES FEW OR NO CLOUDS BELOW 12000 FEET WITH NO
SIGNIFICANT WEATHER AND/OR OBSTRUCTIONS TO VISIBILITY.

MTZ001>007-043-232000-
WEST OF THE DIVIDE

CITY           SKY/WX    TMP DP  RH WIND       PRES   REMARKS
KALISPELL      MOSUNNY   70  47  43 E9G22     30.12F
MISSOULA       PTSUNNY   73  44  35 E6        30.16F
BUTTE          SUNNY     68  34  28 NW6       30.20F
MULLAN PASS    PTSUNNY   55  46  71 VRB5      30.28S
ANACONDA         N/A     68  39  34 NE6       30.18F
DEER LODGE       N/A     70  41  35 NW12      30.20F
EUREKA           N/A     75  46  35 CALM      30.10F
HAMILTON         N/A     72  39  30 CALM      30.16F
LIBBY            N/A     70  46  43 W6        30.14S
PLAINS           N/A     75  45  34 W2        30.14F
RONAN            N/A     72  47  40 SE3       30.19F
$$

MTZ008-052>055-232000-
SOUTHWEST MONTANA

CITY           SKY/WX    TMP DP  RH WIND       PRES   REMARKS
BOZEMAN        SUNNY     74  42  31 N6        30.15F
DILLON         SUNNY     73  36  25 VRB3      30.16F
W YELLOWSTONE  MOSUNNY   72  36  26 SW15G21   30.25F
ENNIS          SUNNY     73  34  23 CALM      30.22F
THREE FORKS      N/A     76  76 100 W7        30.11F
TWIN BRIDGES     N/A     73  32  22 S7        30.14F
$$

MTZ009-010-012-014-046-048-049-054-232000-
EAST SLOPES AND CENTRAL MONTANA

CITY           SKY/WX    TMP DP  RH WIND       PRES   REMARKS
CUT BANK       PTSUNNY   75  40  28 W21       30.07F
GREAT FALLS    MOSUNNY   76  39  26 W10       30.08F
MALMSTROM AFB  PTSUNNY   74  41  30 W9        30.08F
HELENA         MOSUNNY   76  40  27 W7G20     30.11F
CHOTEAU          N/A     75  39  27 VRB5      30.10F
CONRAD           N/A     76  45  33 SW9       30.10S
$$

MTZ011-013-016-021-045-047-050-051-232000-
NORTH CENTRAL MONTANA

CITY           SKY/WX    TMP DP  RH WIND       PRES   REMARKS
HAVRE          SUNNY     78  50  37 W26G32    29.98R
LEWISTOWN      CLOUDY    74  45  35 NW16G28   30.09S
N BAR RANCH      N/A     72  43  35 NW26G38   30.10R
CHINOOK          N/A     79  52  38 W21G28    29.95S
$$

MTZ017>020-022>027-061-062-232000-
NORTHEAST MONTANA

CITY           SKY/WX    TMP DP  RH WIND       PRES   REMARKS
GLASGOW        SUNNY     77  49  37 W25G32    29.88S
JORDAN           N/A     81  44  27 NW29G38   29.94S
SIDNEY         SUNNY     81  49  32 W21       29.85F
WOLF POINT     SUNNY     82  49  31 W21G32    29.86S
PLENTYWOOD       N/A     75  52  43 W18G24    29.82R
POPLAR           N/A     77  48  36 W15G29    29.85F
SCOBEY           N/A     75  53  46 W17       29.85S
$$

MTZ028>42-056>058-232000-
SOUTHCENTRAL AND SOUTHEAST MONTANA

CITY           SKY/WX    TMP DP  RH WIND       PRES   REMARKS
BAKER          SUNNY     81  44  27 NW20G30   29.95S
BILLINGS       MOSUNNY   82  34  17 NW18G29   30.04S
LIVINGSTON     SUNNY     79  27  14 NW13G21   30.12F
MILES CITY     SUNNY     84  37  18 W25G36    29.95S
EKALAKA          N/A     80  39  23 W15       29.98S
FORSYTH          N/A     81  39  22 W15G31    29.97S
LAUREL           N/A     83  36  18 NW12      30.03S
ROUNDUP          N/A     78  41  26 W9        29.96S
$$

REGIONAL REPORTS...DAKOTAS

CITY           SKY/WX    TMP DP  RH WIND       PRES   REMARKS
WILLISTON      MOSUNNY   81  48  31 W18G30    29.83S
MINOT          PTSUNNY   79  66  64 SW9       29.78F
DICKINSON      SUNNY     78  49  35 NW16G26   29.88R
BEACH            N/A     81  41  24 W21G30    29.94S
CROSBY           N/A     75  54  46 W16G22    29.81F
WATFORD CITY     N/A    N/A N/A N/A MISG        N/A
BISMARCK       CLOUDY    80  68  66 W18G24    29.79S
GRAND FORKS    CLOUDY    69  67  93 E16       29.70F
FARGO          PTSUNNY   73  68  84 E20G25    29.76F
BUFFALO SD       N/A     85  40  20 NW23G37   29.88R
RAPID CITY     SUNNY     88  45  22 NW24G31   29.95S
$$

REGIONAL REPORTS...WYOMING/IDAHO/WASHINGTON

CITY           SKY/WX    TMP DP  RH WIND       PRES   REMARKS
GILLETTE       SUNNY     81  40  23 MISG      30.06S
SHERIDAN       SUNNY     83  42  23 NW10G17   30.06S
BUFFALO WY     SUNNY     80  41  24 NE9       30.12S
CODY           SUNNY     79  41  25 N14       30.09F
YELLOWSTONE LA   N/A     68  28  22 W5        30.33F
IDAHO FALLS    SUNNY     76  40  27 SW15      30.18F
SALMON         SUNNY     72  39  30 W5        30.11F
BOISE          SUNNY     76  38  25 W6        30.16F
SPOKANE        MOSUNNY   69  43  38 VRB3      30.19S
$$

REGIONAL REPORTS...ALBERTA

CITY           SKY/WX    TMP DP  RH WIND       PRES   REMARKS
EDMONTON       MOSUNNY   68  48  49 W9G20     29.92S
CALGARY        PTSUNNY   70  50  49 S5        29.99S
LETHBRIDGE     MOSUNNY   75  45  33 SW17      30.01F
MEDICINE HAT   PTSUNNY   73  52  46 NW13      29.98S
WATERTON GATE    N/A     70  45  40 SW15G23     N/A
MILK RIVER       N/A     75  45  33 NW10G20     N/A
$$

REGIONAL REPORTS...SASKATCHEWAN

CITY           SKY/WX    TMP DP  RH WIND       PRES   REMARKS
SWIFT CURRENT  CLOUDY    63  55  77 NW23G29   29.90R
REGINA         PTSUNNY   70  61  73 W18G25    29.71R
SASKATOON      PTSUNNY   73  61  64 NW16G22   29.77S
CYPRESS HILLS    N/A     63  50  63 NW9         N/A
VAL MARIE        N/A     70  52  52 NW18G26     N/A
ROCKGLEN         N/A     72  52  49 NW20G30     N/A
ASSINIBOIA       N/A     66  50  55 W17G25      N/A
$$




USA.gov is the U.S. government's official web portal to all federal, state and local government web resources and services.